Time,TemperatureF,DewpointF,PressureIn,WindDirection,WindDirectionDegrees,WindSpeedMPH,WindSpeedGustMPH,Humidity,HourlyPrecipIn,Conditions,Clouds,dailyrainin,SoftwareType,DateUTC
2013-06-01 00:00:00,69.1,67.0,30.05,West,268,0.0,0.0,93,0.00,,---,0.00,VWS V14.01,2013-06-01 04:00:00,
2013-06-01 00:01:00,69.1,67.0,30.05,West,268,0.0,0.0,93,0.00,,---,0.00,VWS V14.01,2013-06-01 04:01:00,
2013-06-01 00:06:00,69.1,67.0,30.05,West,268,0.0,0.0,93,0.00,,---,0.00,VWS V14.01,2013-06-01 04:06:00,
2013-06-01 00:11:00,69.1,67.3,30.04,West,268,0.0,0.0,94,0.00,,---,0.00,VWS V14.01,2013-06-01 04:11:00,
2013-06-01 00:16:00,69.1,67.3,30.05,West,268,0.0,0.0,94,0.00,,---,0.00,VWS V14.01,2013-06-01 04:16:00,
2013-06-01 00:21:00,69.0,67.2,30.05,West,268,0.0,0.0,94,0.00,,---,0.00,VWS V14.01,2013-06-01 04:21:00,
2013-06-01 00:26:00,69.0,67.2,30.04,West,268,0.0,0.0,94,0.00,,---,0.00,VWS V14.01,2013-06-01 04:26:00,
2013-06-01 00:30:00,69.4,67.3,30.05,West,268,0.0,0.0,93,0.00,,---,0.00,VWS V14.01,2013-06-01 04:30:00,
2013-06-01 00:31:00,69.0,67.2,30.04,West,268,0.0,0.0,94,0.00,,---,0.00,VWS V14.01,2013-06-01 04:31:00,
2013-06-01 00:36:00,68.9,67.1,30.04,West,268,0.0,0.0,94,0.00,,---,0.00,VWS V14.01,2013-06-01 04:36:00,
2013-06-01 00:41:00,68.9,67.1,30.04,West,268,0.0,0.0,94,0.00,,---,0.00,VWS V14.01,2013-06-01 04:41:00,
2013-06-01 00:46:00,68.8,66.7,30.04,West,268,0.0,0.0,93,0.00,,---,0.00,VWS V14.01,2013-06-01 04:46:00,
2013-06-01 00:51:00,68.8,66.7,30.04,West,268,0.0,0.0,93,0.00,,---,0.00,VWS V14.01,2013-06-01 04:51:00,
2013-06-01 00:56:00,68.7,66.9,30.04,West,268,0.0,0.0,94,0.00,,---,0.00,VWS V14.01,2013-06-01 04:56:00,
2013-06-01 01:00:00,69.1,67.0,30.05,West,268,0.0,0.0,93,0.00,,---,0.00,VWS V14.01,2013-06-01 05:00:00,
2013-06-01 01:01:00,68.7,66.9,30.04,West,268,0.0,0.0,94,0.00,,---,0.00,VWS V14.01,2013-06-01 05:01:00,
2013-06-01 01:06:00,68.6,66.8,30.04,West,268,0.0,0.0,94,0.00,,---,0.00,VWS V14.01,2013-06-01 05:06:00,
2013-06-01 01:11:00,68.6,66.8,30.04,West,268,0.0,0.0,94,0.00,,---,0.00,VWS V14.01,2013-06-01 05:11:00,
2013-06-01 01:16:00,68.6,66.8,30.04,West,268,0.0,0.0,94,0.00,,---,0.00,VWS V14.01,2013-06-01 05:16:00,
2013-06-01 01:21:00,68.6,66.8,30.04,West,268,0.0,0.0,94,0.00,,---,0.00,VWS V14.01,2013-06-01 05:21:00,
2013-06-01 01:26:00,68.5,66.7,30.04,West,268,0.0,0.0,94,0.00,,---,0.00,VWS V14.01,2013-06-01 05:26:00,
2013-06-01 01:30:00,68.9,67.1,30.05,West,268,0.0,0.0,94,0.00,,---,0.00,VWS V14.01,2013-06-01 05:30:00,
2013-06-01 01:31:00,68.5,66.7,30.04,West,268,0.0,0.0,94,0.00,,---,0.00,VWS V14.01,2013-06-01 05:31:00,
2013-06-01 01:36:00,68.5,66.7,30.04,West,268,0.0,0.0,94,0.00,,---,0.00,VWS V14.01,2013-06-01 05:36:00,
2013-06-01 01:41:00,68.4,66.6,30.03,West,268,0.0,0.0,94,0.00,,---,0.00,VWS V14.01,2013-06-01 05:41:00,
2013-06-01 01:46:00,68.4,66.6,30.03,West,268,0.0,0.0,94,0.00,,---,0.00,VWS V14.01,2013-06-01 05:46:00,
2013-06-01 01:51:00,68.3,66.5,30.03,West,268,0.0,0.0,94,0.00,,---,0.00,VWS V14.01,2013-06-01 05:51:00,
2013-06-01 01:56:00,68.2,66.4,30.03,West,268,0.0,0.0,94,0.00,,---,0.00,VWS V14.01,2013-06-01 05:56:00,
2013-06-01 02:00:00,68.7,66.9,30.04,West,268,0.0,0.0,94,0.00,,---,0.00,VWS V14.01,2013-06-01 06:00:00,
2013-06-01 02:01:00,68.2,66.4,30.03,West,268,0.0,0.0,94,0.00,,---,0.00,VWS V14.01,2013-06-01 06:01:00,
2013-06-01 02:06:00,68.1,66.3,30.03,West,268,0.0,0.0,94,0.00,,---,0.00,VWS V14.01,2013-06-01 06:06:00,
2013-06-01 02:11:00,68.1,66.3,30.03,West,268,0.0,0.0,94,0.00,,---,0.00,VWS V14.01,2013-06-01 06:11:00,
2013-06-01 02:16:00,68.0,66.2,30.03,West,268,0.0,0.0,94,0.00,,---,0.00,VWS V14.01,2013-06-01 06:16:00,
2013-06-01 02:21:00,67.9,66.1,30.03,West,268,0.0,0.0,94,0.00,,---,0.00,VWS V14.01,2013-06-01 06:21:00,
2013-06-01 02:26:00,67.9,66.1,30.03,West,268,0.0,0.0,94,0.00,,---,0.00,VWS V14.01,2013-06-01 06:26:00,
2013-06-01 02:30:00,68.5,66.7,30.04,West,268,0.0,0.0,94,0.00,,---,0.00,VWS V14.01,2013-06-01 06:30:00,
2013-06-01 02:31:00,67.8,66.0,30.04,West,268,0.0,0.0,94,0.00,,---,0.00,VWS V14.01,2013-06-01 06:31:00,
2013-06-01 02:36:00,67.7,65.9,30.04,West,268,0.0,0.0,94,0.00,,---,0.00,VWS V14.01,2013-06-01 06:36:00,
2013-06-01 02:41:00,67.6,65.8,30.04,West,268,0.0,0.0,94,0.00,,---,0.00,VWS V14.01,2013-06-01 06:41:00,
2013-06-01 02:46:00,67.6,65.8,30.03,West,268,0.0,0.0,94,0.00,,---,0.00,VWS V14.01,2013-06-01 06:46:00,
2013-06-01 02:51:00,67.6,65.8,30.03,West,268,0.0,0.0,94,0.00,,---,0.00,VWS V14.01,2013-06-01 06:51:00,
2013-06-01 02:56:00,67.5,65.7,30.04,West,268,0.0,0.0,94,0.00,,---,0.00,VWS V14.01,2013-06-01 06:56:00,
2013-06-01 03:00:00,68.2,66.4,30.03,West,268,0.0,0.0,94,0.00,,---,0.00,VWS V14.01,2013-06-01 07:00:00,
2013-06-01 03:01:00,67.4,65.6,30.04,West,268,0.0,0.0,94,0.00,,---,0.00,VWS V14.01,2013-06-01 07:01:00,
2013-06-01 03:06:00,67.3,65.5,30.04,West,268,0.0,0.0,94,0.00,,---,0.00,VWS V14.01,2013-06-01 07:06:00,
2013-06-01 03:11:00,67.3,65.5,30.04,West,268,0.0,0.0,94,0.00,,---,0.00,VWS V14.01,2013-06-01 07:11:00,
2013-06-01 03:16:00,67.2,65.4,30.04,West,268,0.0,0.0,94,0.00,,---,0.00,VWS V14.01,2013-06-01 07:16:00,
2013-06-01 03:21:00,67.2,65.4,30.04,West,268,0.0,0.0,94,0.00,,---,0.00,VWS V14.01,2013-06-01 07:21:00,
2013-06-01 03:26:00,67.1,65.3,30.03,West,268,0.0,0.0,94,0.00,,---,0.00,VWS V14.01,2013-06-01 07:26:00,
2013-06-01 03:30:00,67.8,66.0,30.03,West,268,0.0,0.0,94,0.00,,---,0.00,VWS V14.01,2013-06-01 07:30:00,
2013-06-01 03:31:00,67.0,65.2,30.03,West,268,0.0,0.0,94,0.00,,---,0.00,VWS V14.01,2013-06-01 07:31:00,
2013-06-01 03:36:00,67.0,65.2,30.03,West,268,0.0,0.0,94,0.00,,---,0.00,VWS V14.01,2013-06-01 07:36:00,
2013-06-01 03:41:00,66.9,65.1,30.04,West,268,0.0,0.0,94,0.00,,---,0.00,VWS V14.01,2013-06-01 07:41:00,
2013-06-01 03:46:00,66.8,65.0,30.04,West,268,0.0,0.0,94,0.00,,---,0.00,VWS V14.01,2013-06-01 07:46:00,
2013-06-01 03:51:00,66.7,64.9,30.04,West,268,0.0,0.0,94,0.00,,---,0.00,VWS V14.01,2013-06-01 07:51:00,
2013-06-01 03:56:00,66.7,64.9,30.04,West,268,0.0,0.0,94,0.00,,---,0.00,VWS V14.01,2013-06-01 07:56:00,
2013-06-01 04:00:00,67.4,65.6,30.04,West,268,0.0,0.0,94,0.00,,---,0.00,VWS V14.01,2013-06-01 08:00:00,
2013-06-01 04:01:00,66.6,64.8,30.04,West,268,0.0,0.0,94,0.00,,---,0.00,VWS V14.01,2013-06-01 08:01:00,
2013-06-01 04:06:00,66.5,64.7,30.04,West,268,0.0,0.0,94,0.00,,---,0.00,VWS V14.01,2013-06-01 08:06:00,
2013-06-01 04:11:00,66.5,64.7,30.04,West,268,0.0,0.0,94,0.00,,---,0.00,VWS V14.01,2013-06-01 08:11:00,
2013-06-01 04:16:00,66.4,64.6,30.04,West,268,0.0,0.0,94,0.00,,---,0.00,VWS V14.01,2013-06-01 08:16:00,
2013-06-01 04:21:00,66.3,64.5,30.04,West,268,0.0,0.0,94,0.00,,---,0.00,VWS V14.01,2013-06-01 08:21:00,
2013-06-01 04:26:00,66.2,64.4,30.04,West,268,0.0,0.0,94,0.00,,---,0.00,VWS V14.01,2013-06-01 08:26:00,
2013-06-01 04:30:00,67.0,65.2,30.03,West,268,0.0,0.0,94,0.00,,---,0.00,VWS V14.01,2013-06-01 08:30:00,
2013-06-01 04:31:00,66.1,64.3,30.04,West,268,0.0,0.0,94,0.00,,---,0.00,VWS V14.01,2013-06-01 08:31:00,
2013-06-01 04:36:00,66.0,64.2,30.04,West,268,0.0,0.0,94,0.00,,---,0.00,VWS V14.01,2013-06-01 08:36:00,
2013-06-01 04:41:00,66.0,64.2,30.04,West,268,0.0,0.0,94,0.00,,---,0.00,VWS V14.01,2013-06-01 08:41:00,
2013-06-01 04:46:00,65.9,64.1,30.04,West,268,0.0,0.0,94,0.00,,---,0.00,VWS V14.01,2013-06-01 08:46:00,
2013-06-01 04:51:00,65.9,64.1,30.04,West,268,0.0,0.0,94,0.00,,---,0.00,VWS V14.01,2013-06-01 08:51:00,
2013-06-01 04:56:00,65.8,64.0,30.04,West,268,0.0,0.0,94,0.00,,---,0.00,VWS V14.01,2013-06-01 08:56:00,
2013-06-01 05:00:00,66.6,64.8,30.04,West,268,0.0,0.0,94,0.00,,---,0.00,VWS V14.01,2013-06-01 09:00:00,
2013-06-01 05:01:00,65.8,64.3,30.04,West,268,0.0,0.0,95,0.00,,---,0.00,VWS V14.01,2013-06-01 09:01:00,
2013-06-01 05:06:00,65.7,64.2,30.04,West,268,0.0,0.0,95,0.00,,---,0.00,VWS V14.01,2013-06-01 09:06:00,
2013-06-01 05:11:00,65.7,63.9,30.04,West,268,0.0,0.0,94,0.00,,---,0.00,VWS V14.01,2013-06-01 09:11:00,
2013-06-01 05:16:00,65.7,64.2,30.05,West,268,0.0,0.0,95,0.00,,---,0.00,VWS V14.01,2013-06-01 09:16:00,
2013-06-01 05:21:00,65.6,64.1,30.05,West,268,0.0,0.0,95,0.00,,---,0.00,VWS V14.01,2013-06-01 09:21:00,
2013-06-01 05:26:00,65.5,64.0,30.05,West,268,0.0,0.0,95,0.00,,---,0.00,VWS V14.01,2013-06-01 09:26:00,
2013-06-01 05:30:00,66.1,64.3,30.04,West,268,0.0,0.0,94,0.00,,---,0.00,VWS V14.01,2013-06-01 09:30:00,
2013-06-01 05:31:00,65.4,63.9,30.05,West,268,0.0,0.0,95,0.00,,---,0.00,VWS V14.01,2013-06-01 09:31:00,
2013-06-01 05:36:00,65.4,63.9,30.05,West,268,0.0,0.0,95,0.00,,---,0.00,VWS V14.01,2013-06-01 09:36:00,
2013-06-01 05:41:00,65.4,63.9,30.05,West,268,0.0,0.0,95,0.00,,---,0.00,VWS V14.01,2013-06-01 09:41:00,
2013-06-01 05:46:00,65.3,63.8,30.05,West,268,0.0,0.0,95,0.00,,---,0.00,VWS V14.01,2013-06-01 09:46:00,
2013-06-01 05:51:00,65.3,63.8,30.05,West,268,0.0,0.0,95,0.00,,---,0.00,VWS V14.01,2013-06-01 09:51:00,
2013-06-01 05:56:00,65.3,63.8,30.05,West,268,0.0,0.0,95,0.00,,---,0.00,VWS V14.01,2013-06-01 09:56:00,
2013-06-01 06:00:00,65.8,64.3,30.04,West,268,0.0,0.0,95,0.00,,---,0.00,VWS V14.01,2013-06-01 10:00:00,
2013-06-01 06:01:00,65.2,63.7,30.05,West,268,0.0,0.0,95,0.00,,---,0.00,VWS V14.01,2013-06-01 10:01:00,
2013-06-01 06:06:00,65.2,63.7,30.05,West,268,0.0,0.0,95,0.00,,---,0.00,VWS V14.01,2013-06-01 10:06:00,
2013-06-01 06:11:00,65.2,63.7,30.05,West,268,0.0,0.0,95,0.00,,---,0.00,VWS V14.01,2013-06-01 10:11:00,
2013-06-01 06:16:00,65.1,63.6,30.05,West,268,0.0,0.0,95,0.00,,---,0.00,VWS V14.01,2013-06-01 10:16:00,
2013-06-01 06:21:00,65.1,63.6,30.05,West,268,0.0,0.0,95,0.00,,---,0.00,VWS V14.01,2013-06-01 10:21:00,
2013-06-01 06:26:00,65.0,63.5,30.05,West,268,0.0,0.0,95,0.00,,---,0.00,VWS V14.01,2013-06-01 10:26:00,
2013-06-01 06:30:00,65.4,63.9,30.05,West,268,0.0,0.0,95,0.00,,---,0.00,VWS V14.01,2013-06-01 10:30:00,
2013-06-01 06:31:00,64.9,63.4,30.05,West,268,0.0,0.0,95,0.00,,---,0.00,VWS V14.01,2013-06-01 10:31:00,
2013-06-01 06:36:00,64.9,63.4,30.06,West,268,0.0,0.0,95,0.00,,---,0.00,VWS V14.01,2013-06-01 10:36:00,
2013-06-01 06:40:00,64.9,63.4,30.06,West,268,0.0,0.0,95,0.00,,---,0.00,VWS V14.01,2013-06-01 10:40:00,
2013-06-01 06:45:00,64.9,63.7,30.06,West,268,0.0,0.0,96,0.00,,---,0.00,VWS V14.01,2013-06-01 10:45:00,
2013-06-01 06:50:00,64.9,63.7,30.06,West,268,0.0,0.0,96,0.00,,---,0.00,VWS V14.01,2013-06-01 10:50:00,
2013-06-01 06:55:00,65.0,63.8,30.06,West,268,0.0,0.0,96,0.00,,---,0.00,VWS V14.01,2013-06-01 10:55:00,
2013-06-01 07:00:00,65.1,63.9,30.06,West,268,0.0,0.0,96,0.00,,---,0.00,VWS V14.01,2013-06-01 11:00:00,
2013-06-01 07:05:00,65.1,63.9,30.06,West,268,0.0,0.0,96,0.00,,---,0.00,VWS V14.01,2013-06-01 11:05:00,
2013-06-01 07:10:00,65.2,64.0,30.06,West,268,0.0,0.0,96,0.00,,---,0.00,VWS V14.01,2013-06-01 11:10:00,
2013-06-01 07:15:00,65.3,64.4,30.06,West,268,0.0,0.0,97,0.00,,---,0.00,VWS V14.01,2013-06-01 11:15:00,
2013-06-01 07:20:00,65.5,64.6,30.06,West,268,0.0,0.0,97,0.00,,---,0.00,VWS V14.01,2013-06-01 11:20:00,
2013-06-01 07:25:00,65.7,64.8,30.06,West,268,0.0,2.0,97,0.00,,---,0.00,VWS V14.01,2013-06-01 11:25:00,
2013-06-01 07:30:00,66.0,65.1,30.06,West,268,0.0,2.0,97,0.00,,---,0.00,VWS V14.01,2013-06-01 11:30:00,
2013-06-01 07:35:00,66.4,65.5,30.06,West,268,0.0,2.0,97,0.00,,---,0.00,VWS V14.01,2013-06-01 11:35:00,
2013-06-01 07:40:00,66.8,66.2,30.05,West,268,0.0,2.0,98,0.00,,---,0.00,VWS V14.01,2013-06-01 11:40:00,
2013-06-01 07:45:00,67.2,66.6,30.05,WNW,290,0.0,4.0,98,0.00,,---,0.00,VWS V14.01,2013-06-01 11:45:00,
2013-06-01 07:50:00,67.7,67.1,30.05,WNW,290,0.0,4.0,98,0.00,,---,0.00,VWS V14.01,2013-06-01 11:50:00,
2013-06-01 07:55:00,68.1,67.5,30.05,WNW,290,1.0,4.0,98,0.00,,---,0.00,VWS V14.01,2013-06-01 11:55:00,
2013-06-01 08:00:00,68.6,68.0,30.05,WNW,290,0.0,4.0,98,0.00,,---,0.00,VWS V14.01,2013-06-01 12:00:00,
2013-06-01 08:05:00,68.9,68.3,30.05,WNW,291,0.0,5.0,98,0.00,,---,0.00,VWS V14.01,2013-06-01 12:05:00,
2013-06-01 08:10:00,69.2,68.6,30.06,WNW,291,0.0,5.0,98,0.00,,---,0.00,VWS V14.01,2013-06-01 12:10:00,
2013-06-01 08:15:00,69.6,69.0,30.06,WNW,286,1.0,5.0,98,0.00,,---,0.00,VWS V14.01,2013-06-01 12:15:00,
2013-06-01 08:20:00,70.0,69.1,30.06,West,263,3.0,5.0,97,0.00,,---,0.00,VWS V14.01,2013-06-01 12:20:00,
2013-06-01 08:25:00,70.5,69.3,30.06,West,268,0.0,6.0,96,0.00,,---,0.00,VWS V14.01,2013-06-01 12:25:00,
2013-06-01 08:30:00,71.0,69.5,30.06,WNW,284,2.0,6.0,95,0.00,,---,0.00,VWS V14.01,2013-06-01 12:30:00,
2013-06-01 08:35:00,71.5,69.7,30.06,West,281,5.0,5.0,94,0.00,,---,0.00,VWS V14.01,2013-06-01 12:35:00,
2013-06-01 08:40:00,72.0,69.6,30.06,West,259,1.0,5.0,92,0.00,,---,0.00,VWS V14.01,2013-06-01 12:40:00,
2013-06-01 08:45:00,72.5,69.7,30.06,West,281,1.0,5.0,91,0.00,,---,0.00,VWS V14.01,2013-06-01 12:45:00,
2013-06-01 08:50:00,73.0,69.9,30.05,WNW,286,2.0,5.0,90,0.00,,---,0.00,VWS V14.01,2013-06-01 12:50:00,
2013-06-01 08:55:00,73.4,70.0,30.06,West,281,0.0,5.0,89,0.00,,---,0.00,VWS V14.01,2013-06-01 12:55:00,
2013-06-01 09:00:00,73.8,69.7,30.05,WNW,284,1.0,5.0,87,0.00,,---,0.00,VWS V14.01,2013-06-01 13:00:00,
2013-06-01 09:05:00,74.2,70.1,30.05,West,273,0.0,5.0,87,0.00,,---,0.00,VWS V14.01,2013-06-01 13:05:00,
2013-06-01 09:10:00,74.6,69.8,30.05,WNW,283,1.0,5.0,85,0.00,,---,0.00,VWS V14.01,2013-06-01 13:10:00,
2013-06-01 09:15:00,74.8,70.0,30.05,West,273,3.0,6.0,85,0.00,,---,0.00,VWS V14.01,2013-06-01 13:15:00,
2013-06-01 09:20:00,75.1,69.9,30.05,WNW,285,0.0,6.0,84,0.00,,---,0.00,VWS V14.01,2013-06-01 13:20:00,
2013-06-01 09:25:00,75.4,70.2,30.05,West,271,2.0,6.0,84,0.00,,---,0.00,VWS V14.01,2013-06-01 13:25:00,
2013-06-01 09:30:00,75.9,70.4,30.05,West,270,1.0,6.0,83,0.00,,---,0.00,VWS V14.01,2013-06-01 13:30:00,
2013-06-01 09:35:00,76.3,70.4,30.05,West,265,0.0,6.0,82,0.00,,---,0.00,VWS V14.01,2013-06-01 13:35:00,
2013-06-01 09:40:00,76.7,70.8,30.05,West,273,0.0,6.0,82,0.00,,---,0.00,VWS V14.01,2013-06-01 13:40:00,
2013-06-01 09:45:00,77.0,70.4,30.04,West,277,3.0,6.0,80,0.00,,---,0.00,VWS V14.01,2013-06-01 13:45:00,
2013-06-01 09:50:00,77.4,70.8,30.04,West,277,2.0,6.0,80,0.00,,---,0.00,VWS V14.01,2013-06-01 13:50:00,
2013-06-01 09:55:00,77.6,70.2,30.04,WNW,292,2.0,6.0,78,0.00,,---,0.00,VWS V14.01,2013-06-01 13:55:00,
2013-06-01 10:00:00,78.1,71.1,30.04,WNW,292,2.0,6.0,79,0.00,,---,0.00,VWS V14.01,2013-06-01 14:00:00,
2013-06-01 10:05:00,78.5,70.3,30.04,West,281,2.0,5.0,76,0.00,,---,0.00,VWS V14.01,2013-06-01 14:05:00,
2013-06-01 10:10:00,78.8,70.6,30.03,West,259,2.0,6.0,76,0.00,,---,0.00,VWS V14.01,2013-06-01 14:10:00,
2013-06-01 10:15:00,79.2,70.2,30.04,West,263,1.0,7.0,74,0.00,,---,0.00,VWS V14.01,2013-06-01 14:15:00,
2013-06-01 10:20:00,79.3,70.3,30.03,WNW,287,0.0,7.0,74,0.00,,---,0.00,VWS V14.01,2013-06-01 14:20:00,
2013-06-01 10:25:00,79.5,70.1,30.03,WNW,288,1.0,7.0,73,0.00,,---,0.00,VWS V14.01,2013-06-01 14:25:00,
2013-06-01 10:30:00,79.8,70.0,30.03,West,267,5.0,7.0,72,0.00,,---,0.00,VWS V14.01,2013-06-01 14:30:00,
2013-06-01 10:35:00,80.0,69.3,30.03,West,279,3.0,7.0,70,0.00,,---,0.00,VWS V14.01,2013-06-01 14:35:00,
2013-06-01 10:40:00,80.3,70.5,30.03,West,273,2.0,7.0,72,0.00,,---,0.00,VWS V14.01,2013-06-01 14:40:00,
2013-06-01 10:45:00,80.7,70.4,30.03,WNW,302,3.0,9.0,71,0.00,,---,0.00,VWS V14.01,2013-06-01 14:45:00,
2013-06-01 10:50:00,80.9,70.6,30.03,West,275,2.0,9.0,71,0.00,,---,0.00,VWS V14.01,2013-06-01 14:50:00,
2013-06-01 10:55:00,81.2,70.1,30.03,West,266,3.0,9.0,69,0.00,,---,0.00,VWS V14.01,2013-06-01 14:55:00,
2013-06-01 11:00:00,81.5,70.4,30.03,West,275,2.0,9.0,69,0.00,,---,0.00,VWS V14.01,2013-06-01 15:00:00,
2013-06-01 11:05:00,81.7,71.0,30.03,West,279,1.0,6.0,70,0.00,,---,0.00,VWS V14.01,2013-06-01 15:05:00,
2013-06-01 11:10:00,81.9,70.7,30.03,WSW,246,1.0,6.0,69,0.00,,---,0.00,VWS V14.01,2013-06-01 15:10:00,
2013-06-01 11:15:00,82.2,71.4,30.03,WNW,298,1.0,6.0,70,0.00,,---,0.00,VWS V14.01,2013-06-01 15:15:00,
2013-06-01 11:20:00,82.5,70.4,30.03,WNW,293,2.0,7.0,67,0.00,,---,0.00,VWS V14.01,2013-06-01 15:20:00,
2013-06-01 11:25:00,82.7,70.2,30.03,NW,320,0.0,7.0,66,0.00,,---,0.00,VWS V14.01,2013-06-01 15:25:00,
2013-06-01 11:30:00,82.9,70.4,30.03,WNW,290,3.0,7.0,66,0.00,,---,0.00,VWS V14.01,2013-06-01 15:30:00,
2013-06-01 11:35:00,83.1,70.6,30.03,West,264,2.0,5.0,66,0.00,,---,0.00,VWS V14.01,2013-06-01 15:35:00,
2013-06-01 11:40:00,83.2,70.7,30.03,WNW,296,2.0,6.0,66,0.00,,---,0.00,VWS V14.01,2013-06-01 15:40:00,
2013-06-01 11:45:00,83.4,71.3,30.03,West,279,2.0,6.0,67,0.00,,---,0.00,VWS V14.01,2013-06-01 15:45:00,
2013-06-01 11:50:00,83.8,70.8,30.03,NW,305,0.0,7.0,65,0.00,,---,0.00,VWS V14.01,2013-06-01 15:50:00,
2013-06-01 11:55:00,84.0,71.9,30.03,WSW,244,0.0,7.0,67,0.00,,---,0.00,VWS V14.01,2013-06-01 15:55:00,
2013-06-01 12:00:00,84.1,70.6,30.03,WSW,255,1.0,7.0,64,0.00,,---,0.00,VWS V14.01,2013-06-01 16:00:00,
2013-06-01 12:05:00,84.2,71.2,30.03,West,267,3.0,6.0,65,0.00,,---,0.00,VWS V14.01,2013-06-01 16:05:00,
2013-06-01 12:10:00,84.4,70.4,30.02,West,263,0.0,6.0,63,0.00,,---,0.00,VWS V14.01,2013-06-01 16:10:00,
2013-06-01 12:15:00,84.7,71.6,30.02,West,263,1.0,6.0,65,0.00,,---,0.00,VWS V14.01,2013-06-01 16:15:00,
2013-06-01 12:20:00,85.0,71.0,30.02,West,275,1.0,6.0,63,0.00,,---,0.00,VWS V14.01,2013-06-01 16:20:00,
2013-06-01 12:25:00,85.4,72.8,30.02,West,273,0.0,6.0,66,0.00,,---,0.00,VWS V14.01,2013-06-01 16:25:00,
2013-06-01 12:30:00,85.4,70.4,30.02,WNW,288,1.0,6.0,61,0.00,,---,0.00,VWS V14.01,2013-06-01 16:30:00,
2013-06-01 12:35:00,85.4,70.9,30.02,WNW,286,0.0,4.0,62,0.00,,---,0.00,VWS V14.01,2013-06-01 16:35:00,
2013-06-01 12:40:00,85.3,70.8,30.02,NW,315,0.0,4.0,62,0.00,,---,0.00,VWS V14.01,2013-06-01 16:40:00,
2013-06-01 12:45:00,85.6,72.0,30.02,West,281,1.0,4.0,64,0.00,,---,0.00,VWS V14.01,2013-06-01 16:45:00,
2013-06-01 12:50:00,86.1,70.6,30.02,West,278,3.0,4.0,60,0.00,,---,0.00,VWS V14.01,2013-06-01 16:50:00,
2013-06-01 12:55:00,86.4,70.4,30.02,WNW,294,0.0,6.0,59,0.00,,---,0.00,VWS V14.01,2013-06-01 16:55:00,
2013-06-01 13:00:00,86.5,71.0,30.02,WNW,303,5.0,7.0,60,0.00,,---,0.00,VWS V14.01,2013-06-01 17:00:00,
2013-06-01 13:05:00,86.5,70.5,30.02,West,276,0.0,5.0,59,0.00,,---,0.00,VWS V14.01,2013-06-01 17:05:00,
2013-06-01 13:10:00,86.8,70.8,30.02,NNE,24,0.0,5.0,59,0.00,,---,0.00,VWS V14.01,2013-06-01 17:10:00,
2013-06-01 13:15:00,86.9,70.9,30.02,West,275,1.0,7.0,59,0.00,,---,0.00,VWS V14.01,2013-06-01 17:15:00,
2013-06-01 13:20:00,87.2,70.1,30.01,WNW,288,4.0,7.0,57,0.00,,---,0.00,VWS V14.01,2013-06-01 17:20:00,
2013-06-01 13:25:00,87.3,70.7,30.01,WNW,284,1.0,7.0,58,0.00,,---,0.00,VWS V14.01,2013-06-01 17:25:00,
2013-06-01 13:30:00,87.5,71.4,30.01,WNW,287,3.0,7.0,59,0.00,,---,0.00,VWS V14.01,2013-06-01 17:30:00,
2013-06-01 13:35:00,87.8,71.2,30.01,West,278,1.0,5.0,58,0.00,,---,0.00,VWS V14.01,2013-06-01 17:35:00,
2013-06-01 13:40:00,87.8,69.1,30.01,West,279,2.0,5.0,54,0.00,,---,0.00,VWS V14.01,2013-06-01 17:40:00,
2013-06-01 13:45:00,87.6,69.4,30.01,WNW,291,4.0,5.0,55,0.00,,---,0.00,VWS V14.01,2013-06-01 17:45:00,
2013-06-01 13:50:00,87.6,70.5,30.00,WNW,288,0.0,5.0,57,0.00,,---,0.00,VWS V14.01,2013-06-01 17:50:00,
2013-06-01 13:55:00,88.0,70.3,30.00,WNW,288,0.0,5.0,56,0.00,,---,0.00,VWS V14.01,2013-06-01 17:55:00,
2013-06-01 14:00:00,87.9,69.7,30.00,West,264,1.0,8.0,55,0.00,,---,0.00,VWS V14.01,2013-06-01 18:00:00,
2013-06-01 14:05:00,87.8,69.6,30.00,WNW,291,1.0,5.0,55,0.00,,---,0.00,VWS V14.01,2013-06-01 18:05:00,
2013-06-01 14:10:00,87.8,70.7,30.00,WNW,288,2.0,6.0,57,0.00,,---,0.00,VWS V14.01,2013-06-01 18:10:00,
2013-06-01 14:15:00,88.0,70.9,30.00,WNW,294,1.0,6.0,57,0.00,,---,0.00,VWS V14.01,2013-06-01 18:15:00,
2013-06-01 14:20:00,88.3,70.1,30.00,WNW,284,4.0,7.0,55,0.00,,---,0.00,VWS V14.01,2013-06-01 18:20:00,
2013-06-01 14:25:00,88.3,70.6,29.99,WNW,296,3.0,7.0,56,0.00,,---,0.00,VWS V14.01,2013-06-01 18:25:00,
2013-06-01 14:30:00,88.1,70.4,29.99,WNW,294,1.0,7.0,56,0.00,,---,0.00,VWS V14.01,2013-06-01 18:30:00,
2013-06-01 14:35:00,88.1,71.5,29.98,West,274,0.0,7.0,58,0.00,,---,0.00,VWS V14.01,2013-06-01 18:35:00,
2013-06-01 14:40:00,87.9,69.7,29.98,West,268,1.0,7.0,55,0.00,,---,0.00,VWS V14.01,2013-06-01 18:40:00,
2013-06-01 14:45:00,87.6,70.0,29.98,WNW,292,2.0,7.0,56,0.00,,---,0.00,VWS V14.01,2013-06-01 18:45:00,
2013-06-01 14:50:00,87.0,70.4,29.98,WNW,303,0.0,7.0,58,0.00,,---,0.00,VWS V14.01,2013-06-01 18:50:00,
2013-06-01 14:55:00,86.8,69.8,29.98,WNW,297,2.0,7.0,57,0.00,,---,0.00,VWS V14.01,2013-06-01 18:55:00,
2013-06-01 15:00:00,86.6,69.6,29.98,NW,321,0.0,7.0,57,0.00,,---,0.00,VWS V14.01,2013-06-01 19:00:00,
2013-06-01 15:05:00,86.9,70.4,29.97,NE,54,0.0,4.0,58,0.00,,---,0.00,VWS V14.01,2013-06-01 19:05:00,
2013-06-01 15:10:00,87.2,69.1,29.97,WNW,285,2.0,6.0,55,0.00,,---,0.00,VWS V14.01,2013-06-01 19:10:00,
2013-06-01 15:15:00,87.3,68.1,29.97,WNW,284,4.0,8.0,53,0.00,,---,0.00,VWS V14.01,2013-06-01 19:15:00,
2013-06-01 15:20:00,87.5,68.8,29.97,WNW,295,3.0,10.0,54,0.00,,---,0.00,VWS V14.01,2013-06-01 19:20:00,
2013-06-01 15:25:00,87.7,67.9,29.97,WNW,300,2.0,10.0,52,0.00,,---,0.00,VWS V14.01,2013-06-01 19:25:00,
2013-06-01 15:30:00,87.7,68.5,29.97,West,271,1.0,11.0,53,0.00,,---,0.00,VWS V14.01,2013-06-01 19:30:00,
2013-06-01 15:35:00,88.0,68.2,29.96,WNW,294,2.0,7.0,52,0.00,,---,0.00,VWS V14.01,2013-06-01 19:35:00,
2013-06-01 15:40:00,88.2,68.4,29.96,NW,319,0.0,7.0,52,0.00,,---,0.00,VWS V14.01,2013-06-01 19:40:00,
2013-06-01 15:45:00,88.5,69.8,29.96,NW,315,2.0,7.0,54,0.00,,---,0.00,VWS V14.01,2013-06-01 19:45:00,
2013-06-01 15:50:00,88.8,68.9,29.96,WNW,290,0.0,7.0,52,0.00,,---,0.00,VWS V14.01,2013-06-01 19:50:00,
2013-06-01 15:55:00,89.0,69.1,29.96,WNW,297,2.0,7.0,52,0.00,,---,0.00,VWS V14.01,2013-06-01 19:55:00,
2013-06-01 16:00:00,89.0,69.7,29.96,West,281,6.0,7.0,53,0.00,,---,0.00,VWS V14.01,2013-06-01 20:00:00,
2013-06-01 16:05:00,88.7,68.8,29.96,WNW,282,1.0,8.0,52,0.00,,---,0.00,VWS V14.01,2013-06-01 20:05:00,
2013-06-01 16:10:00,88.6,69.8,29.96,WNW,282,3.0,8.0,54,0.00,,---,0.00,VWS V14.01,2013-06-01 20:10:00,
2013-06-01 16:15:00,88.4,69.1,29.96,East,81,1.0,8.0,53,0.00,,---,0.00,VWS V14.01,2013-06-01 20:15:00,
2013-06-01 16:20:00,88.1,69.4,29.95,WNW,298,1.0,8.0,54,0.00,,---,0.00,VWS V14.01,2013-06-01 20:20:00,
2013-06-01 16:25:00,87.9,69.2,29.95,WSW,254,1.0,8.0,54,0.00,,---,0.00,VWS V14.01,2013-06-01 20:25:00,
2013-06-01 16:30:00,87.6,68.9,29.96,North,360,1.0,8.0,54,0.00,,---,0.00,VWS V14.01,2013-06-01 20:30:00,
2013-06-01 16:35:00,87.5,68.8,29.95,WNW,296,2.0,5.0,54,0.00,,---,0.00,VWS V14.01,2013-06-01 20:35:00,
2013-06-01 16:40:00,87.5,69.4,29.95,WNW,286,0.0,5.0,55,0.00,,---,0.00,VWS V14.01,2013-06-01 20:40:00,
2013-06-01 16:45:00,87.6,69.4,29.95,WNW,299,0.0,5.0,55,0.00,,---,0.00,VWS V14.01,2013-06-01 20:45:00,
2013-06-01 16:50:00,87.8,70.7,29.95,WNW,299,1.0,5.0,57,0.00,,---,0.00,VWS V14.01,2013-06-01 20:50:00,
2013-06-01 16:55:00,87.9,69.2,29.95,NW,307,2.0,5.0,54,0.00,,---,0.00,VWS V14.01,2013-06-01 20:55:00,
2013-06-01 17:00:00,87.8,69.1,29.95,WNW,287,1.0,5.0,54,0.00,,---,0.00,VWS V14.01,2013-06-01 21:00:00,
2013-06-01 17:05:00,87.8,70.2,29.95,WNW,287,1.0,2.0,56,0.00,,---,0.00,VWS V14.01,2013-06-01 21:05:00,
2013-06-01 17:10:00,87.7,71.1,29.95,WNW,287,0.0,2.0,58,0.00,,---,0.00,VWS V14.01,2013-06-01 21:10:00,
2013-06-01 17:15:00,88.0,70.3,29.95,WNW,292,4.0,4.0,56,0.00,,---,0.00,VWS V14.01,2013-06-01 21:15:00,
2013-06-01 17:20:00,88.2,70.0,29.95,NW,306,1.0,6.0,55,0.00,,---,0.00,VWS V14.01,2013-06-01 21:20:00,
2013-06-01 17:25:00,88.3,70.6,29.95,NNW,333,0.0,6.0,56,0.00,,---,0.00,VWS V14.01,2013-06-01 21:25:00,
2013-06-01 17:30:00,88.2,70.5,29.95,WNW,290,1.0,6.0,56,0.00,,---,0.00,VWS V14.01,2013-06-01 21:30:00,
2013-06-01 17:35:00,88.1,71.0,29.94,WNW,284,0.0,4.0,57,0.00,,---,0.00,VWS V14.01,2013-06-01 21:35:00,
2013-06-01 17:40:00,87.7,69.5,29.94,WNW,290,1.0,7.0,55,0.00,,---,0.00,VWS V14.01,2013-06-01 21:40:00,
2013-06-01 17:45:00,87.4,70.8,29.94,WNW,287,0.0,7.0,58,0.00,,---,0.00,VWS V14.01,2013-06-01 21:45:00,
2013-06-01 17:50:00,87.1,71.0,29.94,WNW,287,0.0,7.0,59,0.00,,---,0.00,VWS V14.01,2013-06-01 21:50:00,
2013-06-01 17:55:00,86.9,70.9,29.94,WNW,287,0.0,7.0,59,0.00,,---,0.00,VWS V14.01,2013-06-01 21:55:00,
2013-06-01 18:00:00,86.7,69.7,29.94,West,281,3.0,7.0,57,0.00,,---,0.00,VWS V14.01,2013-06-01 22:00:00,
2013-06-01 18:05:00,86.5,70.0,29.94,WNW,285,2.0,3.0,58,0.00,,---,0.00,VWS V14.01,2013-06-01 22:05:00,
2013-06-01 18:10:00,86.5,70.5,29.94,WNW,296,4.0,4.0,59,0.00,,---,0.00,VWS V14.01,2013-06-01 22:10:00,
2013-06-01 18:15:00,86.4,69.9,29.94,West,266,4.0,4.0,58,0.00,,---,0.00,VWS V14.01,2013-06-01 22:15:00,
2013-06-01 18:20:00,86.1,69.6,29.94,West,271,2.0,4.0,58,0.00,,---,0.00,VWS V14.01,2013-06-01 22:20:00,
2013-06-01 18:25:00,85.7,70.2,29.94,West,271,0.0,4.0,60,0.00,,---,0.00,VWS V14.01,2013-06-01 22:25:00,
2013-06-01 18:30:00,85.4,70.4,29.94,West,271,1.0,4.0,61,0.00,,---,0.00,VWS V14.01,2013-06-01 22:30:00,
2013-06-01 18:35:00,85.0,70.1,29.94,West,271,0.0,2.0,61,0.00,,---,0.00,VWS V14.01,2013-06-01 22:35:00,
2013-06-01 18:40:00,84.8,70.3,29.94,West,271,2.0,3.0,62,0.00,,---,0.00,VWS V14.01,2013-06-01 22:40:00,
2013-06-01 18:45:00,84.6,69.2,29.94,West,272,0.0,4.0,60,0.00,,---,0.00,VWS V14.01,2013-06-01 22:45:00,
2013-06-01 18:50:00,84.3,69.9,29.94,West,272,1.0,4.0,62,0.00,,---,0.00,VWS V14.01,2013-06-01 22:50:00,
2013-06-01 18:55:00,84.0,70.1,29.94,West,272,0.0,4.0,63,0.00,,---,0.00,VWS V14.01,2013-06-01 22:55:00,
2013-06-01 19:00:00,83.8,70.8,29.94,West,272,0.0,4.0,65,0.00,,---,0.00,VWS V14.01,2013-06-01 23:00:00,
2013-06-01 19:05:00,83.7,71.1,29.94,West,272,0.0,0.0,66,0.00,,---,0.00,VWS V14.01,2013-06-01 23:05:00,
2013-06-01 19:10:00,83.5,71.4,29.94,West,272,0.0,0.0,67,0.00,,---,0.00,VWS V14.01,2013-06-01 23:10:00,
2013-06-01 19:15:00,83.3,71.6,29.94,West,272,0.0,0.0,68,0.00,,---,0.00,VWS V14.01,2013-06-01 23:15:00,
2013-06-01 19:20:00,83.0,71.4,29.94,West,272,0.0,0.0,68,0.00,,---,0.00,VWS V14.01,2013-06-01 23:20:00,
2013-06-01 19:25:00,82.8,72.0,29.94,West,272,0.0,0.0,70,0.00,,---,0.00,VWS V14.01,2013-06-01 23:25:00,
2013-06-01 19:30:00,82.5,71.7,29.94,West,272,0.0,0.0,70,0.00,,---,0.00,VWS V14.01,2013-06-01 23:30:00,
2013-06-01 19:35:00,82.2,72.3,29.94,West,272,0.0,0.0,72,0.00,,---,0.00,VWS V14.01,2013-06-01 23:35:00,
2013-06-01 19:40:00,82.0,72.1,29.94,West,272,0.0,0.0,72,0.00,,---,0.00,VWS V14.01,2013-06-01 23:40:00,
2013-06-01 19:45:00,81.7,71.4,29.94,West,272,0.0,0.0,71,0.00,,---,0.00,VWS V14.01,2013-06-01 23:45:00,
2013-06-01 19:50:00,81.3,71.8,29.94,West,272,0.0,0.0,73,0.00,,---,0.00,VWS V14.01,2013-06-01 23:50:00,
2013-06-01 19:55:00,81.0,71.5,29.94,West,272,0.0,0.0,73,0.00,,---,0.00,VWS V14.01,2013-06-01 23:55:00,
2013-06-01 20:00:00,80.6,71.6,29.94,West,272,0.0,0.0,74,0.00,,---,0.00,VWS V14.01,2013-06-02 00:00:00,
2013-06-01 20:05:00,80.2,71.6,29.94,West,272,0.0,0.0,75,0.00,,---,0.00,VWS V14.01,2013-06-02 00:05:00,
2013-06-01 20:10:00,79.8,71.6,29.94,West,272,0.0,0.0,76,0.00,,---,0.00,VWS V14.01,2013-06-02 00:10:00,
2013-06-01 20:15:00,79.4,71.2,29.94,West,272,0.0,0.0,76,0.00,,---,0.00,VWS V14.01,2013-06-02 00:15:00,
2013-06-01 20:20:00,79.0,71.2,29.94,West,272,0.0,0.0,77,0.00,,---,0.00,VWS V14.01,2013-06-02 00:20:00,
2013-06-01 20:25:00,78.5,71.1,29.94,West,272,0.0,0.0,78,0.00,,---,0.00,VWS V14.01,2013-06-02 00:25:00,
2013-06-01 20:30:00,78.1,71.1,29.94,West,272,0.0,0.0,79,0.00,,---,0.00,VWS V14.01,2013-06-02 00:30:00,
2013-06-01 20:35:00,77.6,70.9,29.94,West,272,0.0,0.0,80,0.00,,---,0.00,VWS V14.01,2013-06-02 00:35:00,
2013-06-01 20:40:00,77.2,70.6,29.94,West,272,0.0,0.0,80,0.00,,---,0.00,VWS V14.01,2013-06-02 00:40:00,
2013-06-01 20:45:00,76.7,70.4,29.94,West,272,0.0,0.0,81,0.00,,---,0.00,VWS V14.01,2013-06-02 00:45:00,
2013-06-01 20:50:00,76.2,70.3,29.94,West,272,0.0,0.0,82,0.00,,---,0.00,VWS V14.01,2013-06-02 00:50:00,
2013-06-01 20:55:00,75.7,70.2,29.94,West,272,0.0,0.0,83,0.00,,---,0.00,VWS V14.01,2013-06-02 00:55:00,
2013-06-01 21:00:00,75.3,69.8,29.93,West,272,0.0,0.0,83,0.00,,---,0.00,VWS V14.01,2013-06-02 01:00:00,
2013-06-01 21:05:00,74.9,69.7,29.93,West,272,0.0,0.0,84,0.00,,---,0.00,VWS V14.01,2013-06-02 01:05:00,
2013-06-01 21:10:00,74.5,69.7,29.94,West,272,0.0,0.0,85,0.00,,---,0.00,VWS V14.01,2013-06-02 01:10:00,
2013-06-01 21:15:00,74.2,69.4,29.94,West,272,0.0,0.0,85,0.00,,---,0.00,VWS V14.01,2013-06-02 01:15:00,
2013-06-01 21:20:00,74.0,69.2,29.94,West,272,0.0,0.0,85,0.00,,---,0.00,VWS V14.01,2013-06-02 01:20:00,
2013-06-01 21:25:00,73.7,68.9,29.94,West,272,0.0,0.0,85,0.00,,---,0.00,VWS V14.01,2013-06-02 01:25:00,
2013-06-01 21:30:00,73.4,69.0,29.94,West,272,0.0,0.0,86,0.00,,---,0.00,VWS V14.01,2013-06-02 01:30:00,
2013-06-01 21:35:00,73.1,69.0,29.94,West,272,0.0,0.0,87,0.00,,---,0.00,VWS V14.01,2013-06-02 01:35:00,
2013-06-01 21:40:00,72.8,69.0,29.94,West,272,0.0,0.0,88,0.00,,---,0.00,VWS V14.01,2013-06-02 01:40:00,
2013-06-01 21:45:00,72.5,68.8,29.94,West,272,0.0,0.0,88,0.00,,---,0.00,VWS V14.01,2013-06-02 01:45:00,
2013-06-01 21:50:00,72.2,68.4,29.94,West,272,0.0,0.0,88,0.00,,---,0.00,VWS V14.01,2013-06-02 01:50:00,
2013-06-01 21:55:00,72.0,68.6,29.94,West,272,0.0,0.0,89,0.00,,---,0.00,VWS V14.01,2013-06-02 01:55:00,
2013-06-01 22:00:00,71.7,68.3,29.95,West,272,0.0,0.0,89,0.00,,---,0.00,VWS V14.01,2013-06-02 02:00:00,
2013-06-01 22:05:00,71.5,68.1,29.95,West,272,0.0,0.0,89,0.00,,---,0.00,VWS V14.01,2013-06-02 02:05:00,
2013-06-01 22:10:00,71.3,67.9,29.96,West,272,0.0,1.0,89,0.00,,---,0.00,VWS V14.01,2013-06-02 02:10:00,
2013-06-01 22:15:00,71.1,68.0,29.96,West,272,0.0,1.0,90,0.00,,---,0.00,VWS V14.01,2013-06-02 02:15:00,
2013-06-01 22:20:00,70.9,67.8,29.96,West,272,0.0,1.0,90,0.00,,---,0.00,VWS V14.01,2013-06-02 02:20:00,
2013-06-01 22:25:00,70.7,67.6,29.96,West,272,0.0,1.0,90,0.00,,---,0.00,VWS V14.01,2013-06-02 02:25:00,
2013-06-01 22:30:00,70.6,67.5,29.96,West,273,0.0,1.0,90,0.00,,---,0.00,VWS V14.01,2013-06-02 02:30:00,
2013-06-01 22:35:00,70.4,67.3,29.96,West,272,0.0,1.0,90,0.00,,---,0.00,VWS V14.01,2013-06-02 02:35:00,
2013-06-01 22:40:00,70.2,67.4,29.96,West,272,0.0,1.0,91,0.00,,---,0.00,VWS V14.01,2013-06-02 02:40:00,
2013-06-01 22:45:00,70.1,67.0,29.97,North,355,0.0,3.0,90,0.00,,---,0.00,VWS V14.01,2013-06-02 02:45:00,
2013-06-01 22:50:00,70.1,67.0,29.97,North,355,0.0,3.0,90,0.00,,---,0.00,VWS V14.01,2013-06-02 02:50:00,
2013-06-01 22:55:00,70.1,67.0,29.97,North,355,0.0,3.0,90,0.00,,---,0.00,VWS V14.01,2013-06-02 02:55:00,
2013-06-01 23:00:00,70.0,66.9,29.97,North,355,0.0,3.0,90,0.00,,---,0.00,VWS V14.01,2013-06-02 03:00:00,
2013-06-01 23:05:00,69.9,66.8,29.97,North,355,0.0,0.0,90,0.00,,---,0.00,VWS V14.01,2013-06-02 03:05:00,
2013-06-01 23:10:00,69.9,66.8,29.97,North,355,0.0,0.0,90,0.00,,---,0.00,VWS V14.01,2013-06-02 03:10:00,
2013-06-01 23:15:00,69.9,66.8,29.97,North,355,0.0,0.0,90,0.00,,---,0.00,VWS V14.01,2013-06-02 03:15:00,
2013-06-01 23:20:00,70.0,66.9,29.97,North,355,0.0,0.0,90,0.00,,---,0.00,VWS V14.01,2013-06-02 03:20:00,
2013-06-01 23:25:00,69.9,66.8,29.98,North,355,0.0,0.0,90,0.00,,---,0.00,VWS V14.01,2013-06-02 03:25:00,
2013-06-01 23:30:00,69.9,66.8,29.98,North,355,0.0,0.0,90,0.00,,---,0.00,VWS V14.01,2013-06-02 03:30:00,
2013-06-01 23:35:00,69.9,66.8,29.98,North,355,0.0,0.0,90,0.00,,---,0.00,VWS V14.01,2013-06-02 03:35:00,
2013-06-01 23:40:00,69.9,66.8,29.98,North,355,0.0,0.0,90,0.00,,---,0.00,VWS V14.01,2013-06-02 03:40:00,
2013-06-01 23:45:00,69.8,66.7,29.98,North,355,0.0,0.0,90,0.00,,---,0.00,VWS V14.01,2013-06-02 03:45:00,
2013-06-01 23:50:00,69.8,66.7,29.98,North,355,0.0,0.0,90,0.00,,---,0.00,VWS V14.01,2013-06-02 03:50:00,
2013-06-01 23:55:00,69.8,66.7,29.98,North,355,0.0,0.0,90,0.00,,---,0.00,VWS V14.01,2013-06-02 03:55:00,